SCP
0 0 0 0 1 1 0 1 1 1 1 0 0 0 0 0 0 0 0 0 0 0 0 0 0 0 0 -0 0 0 0 0 0 0 0 0 0 0
1 0 0 0 0 1 1 1 1 1 1 0 0 0 0 0 0 0 0 0 0 0 0 0 0 0 0 0 0 0 0 -0 0 0 0 0 0 0
0 0 0 0 0 0 1 1 1 0 0 0 0 0 0 0 0 0 0 0 0 0 0 0 0 0 0 -0 0 0 -0 -0 0 -0 -0 -0 0 0
0 0 0 1 0 0 1 1 0 0 0 0 0 0 0 0 0 0 0 0 0 0 0 -0 0 -0 -0 -0 0 0 -0 -0 -0 -0 -0 -0 -0 -0
1 0 0 1 2 0 0 0 0 0 0 0 0 0 0 0 0 0 0 0 0 0 0 0 0 -0 -0 -0 0 -0 -0 -0 0 -0 -0 -0 -0 -0
0 0 0 0 1 0 0 0 0 0 0 0 0 0 0 0 0 0 0 0 0 0 0 0 0 -0 0 0 0 0 -0 0 0 0 -0 -0 -0 -0
1 0 0 0 0 1 0 0 0 0 0 0 0 0 0 0 0 0 0 0 0 0 0 0 0 0 0 0 0 0 -0 0 0 0 -0 -0 -0 0
0 0 0 0 0 0 0 0 0 0 0 0 0 0 0 0 0 0 0 0 0 0 0 0 0 0 0 0 0 0 -0 -0 0 0 0 -0 -0 -0
0 0 0 0 0 0 0 0 0 0 0 0 0 0 0 0 0 0 0 0 0 0 0 0 0 0 0 0 0 0 -0 -0 -0 -0 -0 -0 0 0
0 0 1 1 0 0 0 0 0 0 0 0 0 0 0 0 0 0 0 0 0 0 0 0 0 0 0 0 0 0 -0 -0 -0 0 0 0 0 0
-0 0 0 1 0 0 0 0 0 0 0 0 0 0 0 0 0 0 0 0 0 0 0 0 0 0 0 0 0 0 -0 -0 -0 -0 -0 -0 -0 -0
0 0 1 1 0 0 0 0 0 0 0 0 0 0 0 0 0 0 0 0 0 0 0 0 0 0 0 0 0 0 0 -0 -0 -0 -0 -0 -0 -0
0 0 0 0 0 0 0 0 0 0 0 0 0 0 0 0 0 0 0 0 0 0 -0 0 0 0 0 0 0 0 0 0 0 0 0 -0 0 -0
0 0 0 0 0 0 0 0 0 0 0 0 0 0 0 0 0 0 0 0 0 0 -0 0 0 0 0 0 0 0 0 0 0 0 -0 -0 0 -0
0 0 0 0 0 0 0 0 0 0 0 0 0 0 0 0 0 0 0 0 0 0 0 0 0 0 0 0 0 0 0 0 0 0 0 0 0 0
0 0 0 0 0 0 0 0 0 0 0 0 0 0 0 0 0 0 0 0 0 0 0 0 0 0 0 0 0 0 0 0 0 0 0 0 0 0
0 0 0 0 0 0 0 0 0 0 0 0 0 0 0 0 0 0 0 0 0 0 0 0 0 0 0 0 0 0 0 0 0 0 0 0 0 0
0 0 0 0 0 0 0 0 0 0 0 0 0 0 0 0 0 0 0 0 0 0 0 0 0 0 0 0 0 0 0 0 0 0 0 0 0 0
0 0 0 0 0 0 0 0 0 0 0 0 0 0 0 0 0 0 0 0 0 0 0 0 0 0 0 0 0 0 0 0 0 0 0 0 -0 -0
0 0 0 0 0 0 0 0 0 0 0 0 0 0 0 0 0 0 0 0 0 0 0 0 0 0 0 0 0 0 0 0 0 0 0 0 0 0
0 0 0 -0 0 0 0 0 0 0 0 0 0 0 0 0 0 0 0 0 0 0 0 0 0 0 0 0 0 0 0 0 0 0 0 0 0 0
0 0 0 0 0 0 0 0 0 0 0 0 0 0 0 0 0 0 0 0 0 0 0 0 0 0 0 0 0 0 0 0 0 0 0 0 0 0
0 0 0 0 0 0 0 0 0 0 0 0 0 0 0 0 0 0 0 0 0 0 0 0 0 0 0 0 0 0 0 0 0 0 0 0 0 0
Wind_Speed_500mb
124 119 111 108 107 102 87 95 80 52 57 62 58 60 58 45 35 30 27 18 17 16 9 3 3 7 12 16 18 16 15 16 17 18 19 18 19 19
117 122 112 99 109 105 95 85 78 78 59 70 77 68 63 49 41 33 30 21 22 16 12 6 3 8 11 16 17 14 13 12 14 16 16 17 19 21
104 110 110 101 104 104 90 89 79 79 71 73 73 64 62 53 51 40 34 25 25 22 14 7 2 9 8 13 15 14 11 11 12 13 15 18 18 20
103 99 104 112 110 96 101 88 80 74 78 62 75 71 60 58 50 46 38 29 26 22 18 11 4 7 6 11 13 12 12 10 11 13 17 19 23 25
105 109 112 114 110 98 88 99 84 78 81 74 68 75 71 62 61 50 40 33 30 27 21 12 5 4 12 13 13 10 12 12 12 15 18 22 25 25
103 109 112 108 115 99 90 86 95 85 84 75 70 79 74 72 62 57 53 43 41 32 25 16 9 8 14 18 16 11 11 10 11 15 19 23 27 27
101 104 107 109 98 108 97 80 87 86 89 80 75 86 83 80 74 67 57 51 43 34 32 23 13 12 15 21 19 15 13 9 12 15 19 25 27 28
105 105 108 103 96 112 101 93 80 88 93 79 86 89 85 81 73 71 67 62 58 47 41 32 21 16 16 21 21 20 17 14 15 17 23 29 30 32
105 107 98 97 108 102 107 99 79 78 79 80 82 80 75 63 68 75 68 66 63 43 51 41 31 21 19 18 21 19 18 21 20 21 25 30 32 33
74 108 100 110 109 101 108 102 90 74 72 79 69 55 48 48 55 53 69 66 51 34 54 50 40 29 23 17 16 15 16 21 26 25 25 30 36 38
108 113 130 103 99 99 92 96 89 83 76 68 54 50 39 46 56 65 69 72 62 51 62 43 50 41 29 19 14 11 9 13 20 26 29 30 35 37
32 121 126 108 97 97 93 91 90 79 80 74 64 57 42 47 46 58 66 80 72 53 69 50 56 51 38 30 20 12 4 4 11 20 28 32 34 33
39 88 100 89 83 86 91 87 85 85 81 72 68 57 50 51 55 63 65 71 75 61 61 65 60 54 29 49 34 20 10 1 4 15 24 32 32 30
85 70 62 67 75 83 75 76 81 79 78 70 65 61 61 61 66 64 64 64 52 45 28 60 57 58 40 46 46 33 20 12 4 10 22 32 32 31
80 69 70 68 58 60 65 77 78 76 74 72 68 64 63 66 68 70 65 56 50 47 29 42 45 51 38 35 42 40 32 22 13 5 13 22 22 24
67 81 69 61 58 69 66 57 65 72 71 71 71 70 70 70 75 81 75 69 66 59 45 48 51 45 46 28 30 36 28 17 22 10 9 20 19 28
60 64 54 67 81 65 57 58 58 63 67 69 70 80 75 80 86 82 74 74 72 67 66 63 55 51 45 36 42 30 28 20 17 8 9 14 17 29
65 66 53 61 54 63 63 70 71 71 71 70 78 77 83 88 95 88 77 74 79 69 72 69 67 61 56 50 38 36 30 24 25 14 5 10 16 29
59 47 62 56 63 57 62 63 69 70 70 76 77 85 91 92 95 89 84 76 75 76 75 72 69 67 71 65 49 34 29 35 32 25 11 6 14 26
67 61 90 73 76 72 76 78 76 74 72 74 81 87 91 94 93 92 86 79 77 81 80 78 73 67 58 65 58 50 36 33 33 26 19 15 19 24
62 70 89 94 86 79 79 76 70 69 71 76 80 87 92 94 93 90 86 85 81 81 84 78 69 54 48 51 56 59 47 34 16 16 15 17 21 25
58 70 78 83 79 77 77 80 66 65 73 77 82 88 92 93 91 91 91 88 83 83 82 73 65 55 46 50 55 60 55 49 31 16 11 6 8 16
35 48 59 68 72 72 75 71 64 64 68 73 81 90 93 91 88 88 85 82 81 81 77 75 64 54 48 47 46 57 60 60 50 36 19 17 18 27
Wind_Direction_500mb
219 219 219 221 220 217 221 220 207 189 195 204 211 220 218 217 227 231 233 239 235 221 212 223 310 350 342 14 22 20 29 36 44 42 32 24 25 24
218 220 221 217 219 219 222 225 220 216 192 203 214 213 209 211 220 220 223 225 223 207 203 237 336 334 346 11 15 17 23 23 32 33 25 15 15 17
211 224 222 219 221 223 219 224 223 218 208 207 216 213 202 207 210 209 215 220 214 201 197 220 316 304 355 10 6 9 5 14 19 20 21 12 11 17
209 219 223 224 223 224 217 218 217 219 217 215 210 204 204 206 209 211 204 207 209 203 200 185 259 324 21 20 6 1 15 18 11 17 20 11 12 11
212 216 222 221 216 220 220 216 220 224 223 221 210 203 199 197 199 202 202 202 192 199 200 173 219 40 53 38 18 32 30 25 17 24 21 13 13 11
213 222 223 221 216 215 218 218 216 220 218 214 210 196 194 191 200 199 189 194 195 194 192 183 180 116 62 43 43 44 45 32 29 24 18 16 17 14
213 226 224 224 218 211 213 210 213 217 211 207 200 192 188 192 196 200 200 192 192 201 196 187 174 138 79 53 46 45 54 42 39 32 23 24 20 17
205 215 226 225 221 214 212 214 213 213 210 202 199 195 193 195 199 201 196 187 188 196 196 179 158 136 91 66 55 55 60 52 41 31 29 28 21 15
217 212 219 221 220 215 212 214 212 216 216 208 202 199 199 207 206 201 200 206 198 193 186 181 165 147 114 85 70 63 65 57 48 43 33 24 20 15
211 216 213 214 214 214 213 212 214 219 220 220 225 231 225 225 215 215 204 197 193 193 183 183 171 162 139 117 90 74 55 55 51 47 36 23 16 14
238 233 212 209 206 204 206 208 212 217 217 219 217 213 220 218 215 205 198 189 187 188 184 195 177 168 158 149 129 110 69 49 47 43 35 26 17 15
189 185 193 200 196 199 202 203 207 206 204 203 202 204 206 215 217 215 202 191 190 183 190 197 184 171 169 173 162 152 146 53 26 34 29 24 22 20
161 160 175 183 188 196 204 203 206 203 202 205 199 195 191 193 201 206 204 202 198 195 197 192 189 180 171 177 172 173 180 186 357 14 16 21 27 29
177 168 172 185 193 197 199 203 207 206 206 199 196 193 187 192 196 196 196 201 213 215 214 197 193 193 181 174 175 179 184 194 214 352 10 16 17 29
196 191 196 198 195 196 200 204 205 204 203 199 202 198 195 198 189 186 191 194 195 203 200 199 204 194 196 187 183 181 183 187 203 282 355 6 31 50
193 198 196 198 205 204 196 201 207 204 203 203 202 203 199 196 189 190 189 189 187 195 201 203 207 201 189 198 197 182 191 196 193 217 324 2 31 54
190 195 190 196 179 175 185 192 195 200 202 202 202 206 199 194 190 192 193 188 191 193 193 197 200 200 194 193 185 188 195 194 171 209 328 344 50 63
172 173 171 178 161 170 194 194 195 196 200 203 205 205 199 196 192 191 194 198 198 197 191 190 186 183 188 175 190 187 192 198 168 163 339 331 60 69
189 174 183 176 164 188 204 208 198 196 202 208 206 206 201 196 191 194 195 196 200 201 197 193 189 188 173 166 176 191 206 183 173 159 151 105 74 78
148 161 177 171 189 199 209 211 202 198 203 206 203 205 202 198 194 198 197 195 199 194 195 192 193 198 201 187 175 178 188 201 187 176 155 143 113 99
177 161 177 181 199 213 216 209 204 203 204 202 201 205 205 198 198 200 198 197 196 194 193 192 194 197 203 203 185 174 176 180 193 195 166 147 125 114
188 191 190 202 220 225 220 208 201 206 205 204 202 205 206 201 201 202 201 195 196 196 196 190 188 189 199 208 192 179 174 173 177 187 165 93 103 142
201 213 218 224 223 221 208 203 205 207 207 206 207 208 206 203 202 201 199 195 196 194 192 184 184 187 188 188 193 186 175 174 178 180 193 182 167 137
Wind_Speed_850mb
124 119 111 108 107 102 87 95 80 52 57 62 58 60 58 45 35 30 27 18 17 16 9 3 3 7 12 16 18 16 15 16 17 18 19 18 19 19
117 122 112 99 109 105 95 85 78 78 59 70 77 68 63 49 41 33 30 21 22 16 12 6 3 8 11 16 17 14 13 12 14 16 16 17 19 21
104 110 110 101 104 104 90 89 79 79 71 73 73 64 62 53 51 40 34 25 25 22 14 7 2 9 8 13 15 14 11 11 12 13 15 18 18 20
103 99 104 112 110 96 101 88 80 74 78 62 75 71 60 58 50 46 38 29 26 22 18 11 4 7 6 11 13 12 12 10 11 13 17 19 23 25
105 109 112 114 110 98 88 99 84 78 81 74 68 75 71 62 61 50 40 33 30 27 21 12 5 4 12 13 13 10 12 12 12 15 18 22 25 25
103 109 112 108 115 99 90 86 95 85 84 75 70 79 74 72 62 57 53 43 41 32 25 16 9 8 14 18 16 11 11 10 11 15 19 23 27 27
101 104 107 109 98 108 97 80 87 86 89 80 75 86 83 80 74 67 57 51 43 34 32 23 13 12 15 21 19 15 13 9 12 15 19 25 27 28
105 105 108 103 96 112 101 93 80 88 93 79 86 89 85 81 73 71 67 62 58 47 41 32 21 16 16 21 21 20 17 14 15 17 23 29 30 32
105 107 98 97 108 102 107 99 79 78 79 80 82 80 75 63 68 75 68 66 63 43 51 41 31 21 19 18 21 19 18 21 20 21 25 30 32 33
74 108 100 110 109 101 108 102 90 74 72 79 69 55 48 48 55 53 69 66 51 34 54 50 40 29 23 17 16 15 16 21 26 25 25 30 36 38
108 113 130 103 99 99 92 96 89 83 76 68 54 50 39 46 56 65 69 72 62 51 62 43 50 41 29 19 14 11 9 13 20 26 29 30 35 37
32 121 126 108 97 97 93 91 90 79 80 74 64 57 42 47 46 58 66 80 72 53 69 50 56 51 38 30 20 12 4 4 11 20 28 32 34 33
39 88 100 89 83 86 91 87 85 85 81 72 68 57 50 51 55 63 65 71 75 61 61 65 60 54 29 49 34 20 10 1 4 15 24 32 32 30
85 70 62 67 75 83 75 76 81 79 78 70 65 61 61 61 66 64 64 64 52 45 28 60 57 58 40 46 46 33 20 12 4 10 22 32 32 31
80 69 70 68 58 60 65 77 78 76 74 72 68 64 63 66 68 70 65 56 50 47 29 42 45 51 38 35 42 40 32 22 13 5 13 22 22 24
67 81 69 61 58 69 66 57 65 72 71 71 71 70 70 70 75 81 75 69 66 59 45 48 51 45 46 28 30 36 28 17 22 10 9 20 19 28
60 64 54 67 81 65 57 58 58 63 67 69 70 80 75 80 86 82 74 74 72 67 66 63 55 51 45 36 42 30 28 20 17 8 9 14 17 29
65 66 53 61 54 63 63 70 71 71 71 70 78 77 83 88 95 88 77 74 79 69 72 69 67 61 56 50 38 36 30 24 25 14 5 10 16 29
59 47 62 56 63 57 62 63 69 70 70 76 77 85 91 92 95 89 84 76 75 76 75 72 69 67 71 65 49 34 29 35 32 25 11 6 14 26
67 61 90 73 76 72 76 78 76 74 72 74 81 87 91 94 93 92 86 79 77 81 80 78 73 67 58 65 58 50 36 33 33 26 19 15 19 24
62 70 89 94 86 79 79 76 70 69 71 76 80 87 92 94 93 90 86 85 81 81 84 78 69 54 48 51 56 59 47 34 16 16 15 17 21 25
58 70 78 83 79 77 77 80 66 65 73 77 82 88 92 93 91 91 91 88 83 83 82 73 65 55 46 50 55 60 55 49 31 16 11 6 8 16
35 48 59 68 72 72 75 71 64 64 68 73 81 90 93 91 88 88 85 82 81 81 77 75 64 54 48 47 46 57 60 60 50 36 19 17 18 27
Wind_Direction_850mb
219 219 219 221 220 217 221 220 207 189 195 204 211 220 218 217 227 231 233 239 235 221 212 223 310 350 342 14 22 20 29 36 44 42 32 24 25 24
218 220 221 217 219 219 222 225 220 216 192 203 214 213 209 211 220 220 223 225 223 207 203 237 336 334 346 11 15 17 23 23 32 33 25 15 15 17
211 224 222 219 221 223 219 224 223 218 208 207 216 213 202 207 210 209 215 220 214 201 197 220 316 304 355 10 6 9 5 14 19 20 21 12 11 17
209 219 223 224 223 224 217 218 217 219 217 215 210 204 204 206 209 211 204 207 209 203 200 185 259 324 21 20 6 1 15 18 11 17 20 11 12 11
212 216 222 221 216 220 220 216 220 224 223 221 210 203 199 197 199 202 202 202 192 199 200 173 219 40 53 38 18 32 30 25 17 24 21 13 13 11
213 222 223 221 216 215 218 218 216 220 218 214 210 196 194 191 200 199 189 194 195 194 192 183 180 116 62 43 43 44 45 32 29 24 18 16 17 14
213 226 224 224 218 211 213 210 213 217 211 207 200 192 188 192 196 200 200 192 192 201 196 187 174 138 79 53 46 45 54 42 39 32 23 24 20 17
205 215 226 225 221 214 212 214 213 213 210 202 199 195 193 195 199 201 196 187 188 196 196 179 158 136 91 66 55 55 60 52 41 31 29 28 21 15
217 212 219 221 220 215 212 214 212 216 216 208 202 199 199 207 206 201 200 206 198 193 186 181 165 147 114 85 70 63 65 57 48 43 33 24 20 15
211 216 213 214 214 214 213 212 214 219 220 220 225 231 225 225 215 215 204 197 193 193 183 183 171 162 139 117 90 74 55 55 51 47 36 23 16 14
238 233 212 209 206 204 206 208 212 217 217 219 217 213 220 218 215 205 198 189 187 188 184 195 177 168 158 149 129 110 69 49 47 43 35 26 17 15
189 185 193 200 196 199 202 203 207 206 204 203 202 204 206 215 217 215 202 191 190 183 190 197 184 171 169 173 162 152 146 53 26 34 29 24 22 20
161 160 175 183 188 196 204 203 206 203 202 205 199 195 191 193 201 206 204 202 198 195 197 192 189 180 171 177 172 173 180 186 357 14 16 21 27 29
177 168 172 185 193 197 199 203 207 206 206 199 196 193 187 192 196 196 196 201 213 215 214 197 193 193 181 174 175 179 184 194 214 352 10 16 17 29
196 191 196 198 195 196 200 204 205 204 203 199 202 198 195 198 189 186 191 194 195 203 200 199 204 194 196 187 183 181 183 187 203 282 355 6 31 50
193 198 196 198 205 204 196 201 207 204 203 203 202 203 199 196 189 190 189 189 187 195 201 203 207 201 189 198 197 182 191 196 193 217 324 2 31 54
190 195 190 196 179 175 185 192 195 200 202 202 202 206 199 194 190 192 193 188 191 193 193 197 200 200 194 193 185 188 195 194 171 209 328 344 50 63
172 173 171 178 161 170 194 194 195 196 200 203 205 205 199 196 192 191 194 198 198 197 191 190 186 183 188 175 190 187 192 198 168 163 339 331 60 69
189 174 183 176 164 188 204 208 198 196 202 208 206 206 201 196 191 194 195 196 200 201 197 193 189 188 173 166 176 191 206 183 173 159 151 105 74 78
148 161 177 171 189 199 209 211 202 198 203 206 203 205 202 198 194 198 197 195 199 194 195 192 193 198 201 187 175 178 188 201 187 176 155 143 113 99
177 161 177 181 199 213 216 209 204 203 204 202 201 205 205 198 198 200 198 197 196 194 193 192 194 197 203 203 185 174 176 180 193 195 166 147 125 114
188 191 190 202 220 225 220 208 201 206 205 204 202 205 206 201 201 202 201 195 196 196 196 190 188 189 199 208 192 179 174 173 177 187 165 93 103 142
201 213 218 224 223 221 208 203 205 207 207 206 207 208 206 203 202 201 199 195 196 194 192 184 184 187 188 188 193 186 175 174 178 180 193 182 167 137